Location: Newark
(35.8833°N, 14.5000°E)
Time: 03:15:30
(UTC+00:00)

BEESAT - Pass Details

Date: 13 November 2019
Orbit: 701 x 709 km, 98.6° (Epoch: 15 December)

Event Time Altitude Azimuth Distance (km) Brightness Sun altitude
Rises 02:36:34 0° 128° (SE) 3,082 ? -36.4°
Reaches altitude 10° 02:39:22 10° 111° (ESE) 2,166 ? -35.8°
Maximum altitude 02:42:42 19° 67° (ENE) 1,628 ? -35.1°
Enters shadow 02:45:26 12° 27° (NNE) 2,013 ? -34.6°
